Time,TemperatureF,DewpointF,PressureIn,WindDirection,WindDirectionDegrees,WindSpeedMPH,WindSpeedGustMPH,Humidity,HourlyPrecipIn,Conditions,Clouds,dailyrainin,SoftwareType,DateUTC
2013-05-27 00:06:00,39.7,28.9,29.80,West,270,0.0,-999.0,65,-99.99,,,0.00,Acu-Link.com,2013-05-27 06:06:00,
2013-05-27 00:21:00,37.8,28.9,29.80,WNW,292,0.0,-999.0,70,-99.99,,,0.00,Acu-Link.com,2013-05-27 06:21:00,
2013-05-27 00:36:00,36.3,28.5,29.81,ENE,67,0.0,-999.0,73,-99.99,,,0.00,Acu-Link.com,2013-05-27 06:36:00,
2013-05-27 00:52:00,35.4,25.6,29.81,North,0,1.7,-999.0,67,-99.99,,,0.00,Acu-Link.com,2013-05-27 06:52:00,
2013-05-27 01:07:00,36.7,26.1,29.81,NE,45,0.0,-999.0,65,-99.99,,,0.00,Acu-Link.com,2013-05-27 07:07:00,
2013-05-27 01:22:00,36.1,26.2,29.79,SSW,202,0.0,-999.0,67,-99.99,,,0.00,Acu-Link.com,2013-05-27 07:22:00,
2013-05-27 01:37:00,34.2,26.8,29.80,West,270,0.0,-999.0,74,-99.99,,,0.00,Acu-Link.com,2013-05-27 07:37:00,
2013-05-27 01:52:00,33.6,29.6,29.80,NE,45,0.0,-999.0,85,-99.99,,,0.00,Acu-Link.com,2013-05-27 07:52:00,
2013-05-27 02:08:00,33.8,27.4,29.80,East,90,0.0,-999.0,77,-99.99,,,0.00,Acu-Link.com,2013-05-27 08:08:00,
2013-05-27 02:23:00,33.8,27.7,29.80,ENE,67,0.0,-999.0,78,-99.99,,,0.00,Acu-Link.com,2013-05-27 08:23:00,
2013-05-27 02:39:00,32.9,25.5,29.80,ENE,67,0.0,-999.0,74,-99.99,,,0.00,Acu-Link.com,2013-05-27 08:39:00,
2013-05-27 02:54:00,31.5,24.2,29.80,NNE,22,0.0,-999.0,74,-99.99,,,0.00,Acu-Link.com,2013-05-27 08:54:00,
2013-05-27 03:09:00,31.5,25.4,29.82,NNE,22,0.0,-999.0,78,-99.99,,,0.00,Acu-Link.com,2013-05-27 09:09:00,
2013-05-27 03:24:00,31.5,23.5,29.81,WSW,247,0.0,-999.0,72,-99.99,,,0.00,Acu-Link.com,2013-05-27 09:24:00,
2013-05-27 03:39:00,29.5,23.5,29.80,ESE,112,0.0,-999.0,78,-99.99,,,0.00,Acu-Link.com,2013-05-27 09:39:00,
2013-05-27 03:54:00,28.4,23.9,29.80,East,90,0.0,-999.0,83,-99.99,,,0.00,Acu-Link.com,2013-05-27 09:54:00,
2013-05-27 04:09:00,28.8,24.6,29.81,NE,45,0.0,-999.0,84,-99.99,,,0.00,Acu-Link.com,2013-05-27 10:09:00,
2013-05-27 04:25:00,28.6,23.8,29.81,NNE,22,0.0,-999.0,82,-99.99,,,0.00,Acu-Link.com,2013-05-27 10:25:00,
2013-05-27 04:40:00,28.2,23.1,29.80,NNE,22,0.0,-999.0,81,-99.99,,,0.00,Acu-Link.com,2013-05-27 10:40:00,
2013-05-27 04:55:00,27.7,23.5,29.80,North,0,0.0,-999.0,84,-99.99,,,0.00,Acu-Link.com,2013-05-27 10:55:00,
2013-05-27 05:10:00,27.3,22.5,29.81,West,270,0.0,-999.0,82,-99.99,,,0.00,Acu-Link.com,2013-05-27 11:10:00,
2013-05-27 05:25:00,26.4,23.3,29.82,East,90,0.0,-999.0,88,-99.99,,,0.00,Acu-Link.com,2013-05-27 11:25:00,
2013-05-27 05:41:00,26.6,23.3,29.82,East,90,2.2,-999.0,87,-99.99,,,0.00,Acu-Link.com,2013-05-27 11:41:00,
2013-05-27 05:56:00,27.0,23.1,29.82,ENE,67,0.0,-999.0,85,-99.99,,,0.00,Acu-Link.com,2013-05-27 11:56:00,
2013-05-27 06:11:00,27.3,24.8,29.82,NW,315,1.1,-999.0,90,-99.99,,,0.00,Acu-Link.com,2013-05-27 12:11:00,
2013-05-27 06:27:00,32.9,26.8,29.83,NNW,337,0.0,-999.0,78,-99.99,,,0.00,Acu-Link.com,2013-05-27 12:27:00,
2013-05-27 06:42:00,39.0,29.3,29.82,ENE,67,0.0,-999.0,68,-99.99,,,0.00,Acu-Link.com,2013-05-27 12:42:00,
2013-05-27 06:57:00,42.8,30.3,29.83,East,90,2.7,-999.0,61,-99.99,,,0.00,Acu-Link.com,2013-05-27 12:57:00,
2013-05-27 07:12:00,45.5,31.2,29.82,East,90,2.7,-999.0,57,-99.99,,,0.00,Acu-Link.com,2013-05-27 13:12:00,
2013-05-27 07:28:00,48.2,31.4,29.83,ENE,67,2.7,-999.0,52,-99.99,,,0.00,Acu-Link.com,2013-05-27 13:28:00,
2013-05-27 07:43:00,51.3,30.7,29.83,SE,135,0.0,-999.0,45,-99.99,,,0.00,Acu-Link.com,2013-05-27 13:43:00,
2013-05-27 07:58:00,55.4,29.6,29.83,NNE,22,2.7,-999.0,37,-99.99,,,0.00,Acu-Link.com,2013-05-27 13:58:00,
2013-05-27 08:13:00,58.5,32.3,29.82,SE,135,2.2,-999.0,37,-99.99,,,0.00,Acu-Link.com,2013-05-27 14:13:00,
2013-05-27 08:29:00,61.5,31.4,29.82,NNE,22,4.7,-999.0,32,-99.99,,,0.00,Acu-Link.com,2013-05-27 14:29:00,
2013-05-27 08:44:00,63.5,30.7,29.81,NE,45,3.2,-999.0,29,-99.99,,,0.00,Acu-Link.com,2013-05-27 14:44:00,
2013-05-27 08:59:00,58.8,29.0,29.80,South,180,2.2,-999.0,32,-99.99,,,0.00,Acu-Link.com,2013-05-27 14:59:00,
2013-05-27 09:15:00,58.1,32.0,29.80,NE,45,2.7,-999.0,37,-99.99,,,0.00,Acu-Link.com,2013-05-27 15:15:00,
2013-05-27 09:30:00,58.3,31.5,29.79,ESE,112,4.2,-999.0,36,-99.99,,,0.00,Acu-Link.com,2013-05-27 15:30:00,
2013-05-27 09:45:00,59.2,30.9,29.79,ENE,67,0.0,-999.0,34,-99.99,,,0.00,Acu-Link.com,2013-05-27 15:45:00,
2013-05-27 10:01:00,61.0,28.5,29.78,North,0,2.2,-999.0,29,-99.99,,,0.00,Acu-Link.com,2013-05-27 16:01:00,
2013-05-27 10:16:00,63.3,28.8,29.77,South,180,3.2,-999.0,27,-99.99,,,0.00,Acu-Link.com,2013-05-27 16:16:00,
2013-05-27 10:31:00,66.0,31.1,29.76,South,180,4.7,-999.0,27,-99.99,,,0.00,Acu-Link.com,2013-05-27 16:31:00,
2013-05-27 10:46:00,65.3,27.6,29.75,SW,225,3.7,-999.0,24,-99.99,,,0.00,Acu-Link.com,2013-05-27 16:46:00,
2013-05-27 11:01:00,69.6,27.9,29.76,SSW,202,3.7,-999.0,21,-99.99,,,0.00,Acu-Link.com,2013-05-27 17:01:00,
2013-05-27 11:16:00,70.2,29.6,29.75,SSW,202,3.7,-999.0,22,-99.99,,,0.00,Acu-Link.com,2013-05-27 17:16:00,
2013-05-27 11:31:00,73.0,-33.0,29.73,SSW,202,9.4,-999.0,1,-99.99,,,0.00,Acu-Link.com,2013-05-27 17:31:00,
2013-05-27 11:46:00,74.1,-32.4,29.72,SSW,202,6.8,-999.0,1,-99.99,,,0.00,Acu-Link.com,2013-05-27 17:46:00,
2013-05-27 12:02:00,75.6,-31.5,29.72,SW,225,7.3,-999.0,1,-99.99,,,0.00,Acu-Link.com,2013-05-27 18:02:00,
2013-05-27 12:17:00,74.8,-31.9,29.72,South,180,3.7,-999.0,1,-99.99,,,0.00,Acu-Link.com,2013-05-27 18:17:00,
2013-05-27 12:32:00,75.7,-31.4,29.71,ENE,67,3.7,-999.0,1,-99.99,,,0.00,Acu-Link.com,2013-05-27 18:32:00,
2013-05-27 12:47:00,76.3,-31.0,29.72,SW,225,3.7,-999.0,1,-99.99,,,0.00,Acu-Link.com,2013-05-27 18:47:00,
2013-05-27 13:02:00,76.8,-30.7,29.70,South,180,6.3,-999.0,1,-99.99,,,0.00,Acu-Link.com,2013-05-27 19:02:00,
2013-05-27 13:17:00,75.4,-31.6,29.69,South,180,4.7,-999.0,1,-99.99,,,0.00,Acu-Link.com,2013-05-27 19:17:00,
2013-05-27 13:32:00,76.8,-30.7,29.69,SSE,157,3.2,-999.0,1,-99.99,,,0.00,Acu-Link.com,2013-05-27 19:32:00,
2013-05-27 13:47:00,76.6,-30.9,29.69,SSE,157,3.2,-999.0,1,-99.99,,,0.00,Acu-Link.com,2013-05-27 19:47:00,
2013-05-27 14:02:00,77.4,-30.4,29.67,NW,315,13.5,-999.0,1,-99.99,,,0.00,Acu-Link.com,2013-05-27 20:02:00,
2013-05-27 14:17:00,76.3,-31.0,29.67,ENE,67,7.3,-999.0,1,-99.99,,,0.00,Acu-Link.com,2013-05-27 20:17:00,
2013-05-27 14:33:00,76.6,-30.9,29.67,SSW,202,2.7,-999.0,1,-99.99,,,0.00,Acu-Link.com,2013-05-27 20:33:00,
2013-05-27 14:48:00,77.4,-30.4,29.66,WSW,247,4.7,-999.0,1,-99.99,,,0.00,Acu-Link.com,2013-05-27 20:48:00,
2013-05-27 15:03:00,77.9,-30.1,29.65,NNW,337,4.2,-999.0,1,-99.99,,,0.00,Acu-Link.com,2013-05-27 21:03:00,
2013-05-27 15:18:00,76.3,-31.0,29.65,NE,45,4.2,-999.0,1,-99.99,,,0.00,Acu-Link.com,2013-05-27 21:18:00,
2013-05-27 15:34:00,77.7,-30.2,29.64,NNW,337,7.8,-999.0,1,-99.99,,,0.00,Acu-Link.com,2013-05-27 21:34:00,
2013-05-27 15:49:00,75.7,-31.4,29.63,NNE,22,6.8,-999.0,1,-99.99,,,0.00,Acu-Link.com,2013-05-27 21:49:00,
2013-05-27 16:04:00,76.3,-31.0,29.62,ESE,112,4.7,-999.0,1,-99.99,,,0.00,Acu-Link.com,2013-05-27 22:04:00,
2013-05-27 16:19:00,75.7,-31.4,29.63,SW,225,7.3,-999.0,1,-99.99,,,0.00,Acu-Link.com,2013-05-27 22:19:00,
2013-05-27 16:34:00,75.9,-31.3,29.63,NW,315,6.8,-999.0,1,-99.99,,,0.00,Acu-Link.com,2013-05-27 22:34:00,
2013-05-27 16:49:00,74.5,-32.1,29.61,SSW,202,5.3,-999.0,1,-99.99,,,0.00,Acu-Link.com,2013-05-27 22:49:00,
2013-05-27 17:04:00,74.5,-32.1,29.61,NE,45,8.9,-999.0,1,-99.99,,,0.00,Acu-Link.com,2013-05-27 23:04:00,
2013-05-27 17:19:00,73.6,-32.7,29.61,SSW,202,4.2,-999.0,1,-99.99,,,0.00,Acu-Link.com,2013-05-27 23:19:00,
2013-05-27 17:34:00,71.8,-33.7,29.61,SE,135,4.2,-999.0,1,-99.99,,,0.00,Acu-Link.com,2013-05-27 23:34:00,
2013-05-27 17:50:00,72.1,-33.6,29.61,South,180,4.7,-999.0,1,-99.99,,,0.00,Acu-Link.com,2013-05-27 23:50:00,
2013-05-27 18:05:00,73.0,-33.0,29.61,SE,135,6.8,-999.0,1,-99.99,,,0.00,Acu-Link.com,2013-05-28 00:05:00,
2013-05-27 18:20:00,70.9,-34.3,29.61,SSW,202,2.7,-999.0,1,-99.99,,,0.00,Acu-Link.com,2013-05-28 00:20:00,
2013-05-27 18:35:00,69.3,-35.2,29.60,South,180,2.7,-999.0,1,-99.99,,,0.00,Acu-Link.com,2013-05-28 00:35:00,
2013-05-27 18:51:00,67.3,-36.4,29.62,South,180,3.2,-999.0,1,-99.99,,,0.00,Acu-Link.com,2013-05-28 00:51:00,
2013-05-27 19:06:00,66.4,-37.0,29.63,SW,225,4.2,-999.0,1,-99.99,,,0.00,Acu-Link.com,2013-05-28 01:06:00,
2013-05-27 19:21:00,64.9,-37.9,29.63,South,180,3.2,-999.0,1,-99.99,,,0.00,Acu-Link.com,2013-05-28 01:21:00,
2013-05-27 19:37:00,64.4,-38.2,29.62,South,180,4.7,-999.0,1,-99.99,,,0.00,Acu-Link.com,2013-05-28 01:37:00,
2013-05-27 19:52:00,62.8,-39.2,29.62,ESE,112,2.7,-999.0,1,-99.99,,,0.00,Acu-Link.com,2013-05-28 01:52:00,
2013-05-27 20:07:00,61.2,-40.1,29.62,South,180,1.7,-999.0,1,-99.99,,,0.00,Acu-Link.com,2013-05-28 02:07:00,
2013-05-27 20:22:00,59.2,17.0,29.63,SW,225,1.1,-999.0,19,-99.99,,,0.00,Acu-Link.com,2013-05-28 02:22:00,
2013-05-27 20:38:00,57.0,17.5,29.64,ESE,112,0.0,-999.0,21,-99.99,,,0.00,Acu-Link.com,2013-05-28 02:38:00,
2013-05-27 20:53:00,54.5,18.5,29.64,South,180,0.0,-999.0,24,-99.99,,,0.00,Acu-Link.com,2013-05-28 02:53:00,
2013-05-27 21:08:00,52.0,19.1,29.65,NNE,22,0.0,-999.0,27,-99.99,,,0.00,Acu-Link.com,2013-05-28 03:08:00,
2013-05-27 21:24:00,49.3,21.4,29.65,WSW,247,0.0,-999.0,33,-99.99,,,0.00,Acu-Link.com,2013-05-28 03:24:00,
2013-05-27 21:39:00,48.7,23.0,29.66,WNW,292,0.0,-999.0,36,-99.99,,,0.00,Acu-Link.com,2013-05-28 03:39:00,
2013-05-27 21:54:00,49.8,25.9,29.67,North,0,2.7,-999.0,39,-99.99,,,0.00,Acu-Link.com,2013-05-28 03:54:00,
2013-05-27 22:09:00,50.0,28.4,29.68,East,90,1.1,-999.0,43,-99.99,,,0.00,Acu-Link.com,2013-05-28 04:09:00,
2013-05-27 22:25:00,47.7,30.0,29.69,North,0,0.0,-999.0,50,-99.99,,,0.00,Acu-Link.com,2013-05-28 04:25:00,
2013-05-27 22:40:00,46.4,31.1,29.68,ESE,112,0.0,-999.0,55,-99.99,,,0.00,Acu-Link.com,2013-05-28 04:40:00,
2013-05-27 22:55:00,44.4,28.8,29.69,WSW,247,0.0,-999.0,54,-99.99,,,0.00,Acu-Link.com,2013-05-28 04:55:00,
2013-05-27 23:11:00,42.3,27.7,29.69,West,270,0.0,-999.0,56,-99.99,,,0.00,Acu-Link.com,2013-05-28 05:11:00,
2013-05-27 23:26:00,41.9,27.8,29.70,North,0,0.0,-999.0,57,-99.99,,,0.00,Acu-Link.com,2013-05-28 05:26:00,
2013-05-27 23:41:00,40.8,28.8,29.69,ENE,67,2.7,-999.0,62,-99.99,,,0.00,Acu-Link.com,2013-05-28 05:41:00,
2013-05-27 23:56:00,39.7,28.2,29.69,NW,315,0.0,-999.0,63,-99.99,,,0.00,Acu-Link.com,2013-05-28 05:56:00,